Location: Rounton
(54.4000°N, 1.3500°W)
Time: 15:22:59
(UTC+00:00)

Transit 2A Rocket - Pass Details

Date: 07 December 2021
Orbit: 584 x 918 km, 66.7° (Epoch: 21 January)

Event Time Altitude Azimuth Distance (km) Brightness Sun altitude
Rises 07:38:00 0° 216° (SW) 3,377 8.3 -4.8°
Reaches altitude 10° 07:40:22 10° 216° (SW) 2,487 7.6 -4.5°
Maximum altitude 07:46:12 83° 130° (SE) 909 5.5 -3.8°
Drops below altitude 10° 07:52:22 10° 43° (NE) 2,619 7.9 -3.1°
Sets 07:54:56 0° 43° (NE) 3,568 8.5 -2.8°
